Regional Weather Roundup
Issued by NWS

Home | Current Version | Previous Version | Graphics & Text | Print | Product List | Glossary On
Versions: 1 2 3 4 5 6 7 8 9 10 11 12 13 14 15 16 17 18 19 20 21 22 23 24 25 26 27 28 29 30 31 32 33 34 35 36 37 38 39 40 41 42 43 44 45 46 47 48 49 50
000
ASUS44 KMEG 230710
RWRTN
TENNESSEE HOURLY STATE WEATHER ROUNDUP
NATIONAL WEATHER SERVICE MEMPHIS TN
100 AM CST THU FEB 23 2017

TNZ002-004-019-021-049-052-054-088>092-230800-
WEST TENNESSEE

CITY           SKY/WX    TMP DP  RH WIND       PRES   REMARKS
MEMPHIS INTL   CLEAR     58  55  90 S6        29.81F
NWS MEMPHIS      N/A     59 N/A N/A MISG        N/A
JACKSON        CLEAR     58  56  93 S3        29.82S
UNION CITY     CLEAR     55  55 100 CALM      29.80S
PARIS          CLEAR     55  54  94 S8        29.81F
HUNTINGDON     CLEAR     57  55  94 SE5       29.81S
$$

TNZ008-025-027-028-033-062-065-066-230800-
NORTH MIDDLE TENNESSEE

CITY           SKY/WX    TMP DP  RH WIND       PRES   REMARKS
NASHVILLE      CLEAR     55  54  96 S5        29.84F
PORTLAND       PTCLDY    57  55  94 S8        29.83F
CLARKSVILLE    PTCLDY    57  53  86 S5        29.82R
SMYRNA         FOG       50  50 100 SE5       29.85F VSB 1/2
COOKEVILLE     MOCLDY    52  50  93 CALM      29.87R FOG
GALLATIN       FOG       52  52 100 CALM      29.87S VSB 1/2
CROSSVILLE     FOG       53  52  96 CALM      29.90S VSB 1/4
$$

TNZ061-075-076-078-094-096-097-230800-
SOUTH MIDDLE TENNESSEE

CITY           SKY/WX    TMP DP  RH WIND       PRES   REMARKS
FAYETTEVILLE   PTCLDY    55  55 100 S5        29.87S FOG
TULLAHOMA      CLOUDY    48  48 100 CALM      29.88S VSB 1/4
WINCHESTER     CLEAR     54  54 100 CALM      29.88S
MCMINNVILLE    CLEAR     48  48 100 CALM      29.87S
COLUMBIA       CLEAR    N/A N/A N/A S3        29.83F
SHELBYVILLE    CLEAR     57  55  94 SE5       29.87S
$$

TNZ017-018-042-046-047-230800-
NORTHEAST TENNESSEE

CITY           SKY/WX    TMP DP  RH WIND       PRES   REMARKS
TRI CITIES     FOG       47  46  97 CALM      29.92S VSB 1/4
ELIZABETHTON   CLOUDY    48  48 100 CALM      29.92S
$$

TNZ012-013-036-069-073-074-230800-
CENTRAL EAST TENNESSEE

CITY           SKY/WX    TMP DP  RH WIND       PRES   REMARKS
KNOXVILLE      FOG       54  53  97 NE5       29.88S VSB 1/4
OAK RIDGE      FOG       51  49  92 CALM      29.90F VSB 1/4
GATLINBURG     CLOUDY    52  52 100 CALM      29.89F VSB 1/4
MORRISTOWN     FOG       50  50 100 E3        29.89S VSB 0
JACKSBORO      CLOUDY    54  54 100 CALM      29.92S FOG
$$

TNZ083-085-099-230800-
SOUTHEAST TENNESSEE

CITY           SKY/WX    TMP DP  RH WIND       PRES   REMARKS
CHATTANOOGA    CLEAR     53  52  96 CALM      29.88S FOG
$$

SKY/WX REPORTED AS FAIR MEANS FEW OR NO CLOUDS BELOW
12 THOUSAND FEET.





USA.gov is the U.S. government's official web portal to all federal, state and local government web resources and services.